Regional Weather Roundup
Issued by NWS Charleston, SC

Current Version | Previous Version | Graphics & Text | Print | Product List | Glossary Off
Versions: 1 2 3 4 5 6 7 8 9 10 11 12 13 14 15 16 17 18 19 20 21 22 23 24 25 26 27 28 29 30 31 32 33 34 35 36 37 38 39 40 41 42 43 44 45 46 47 48 49 50

000
ASUS42 KCHS 300927
RWRCHS

REGIONAL WEATHER ROUNDUP
NATIONAL WEATHER SERVICE CHARLESTON SC
500 AM EDT TUE JUN 30 2015

NOTE: "FAIR" INDICATES FEW OR NO CLOUDS BELOW 12,000 FEET WITH NO
SIGNIFICANT WEATHER AND/OR OBSTRUCTIONS TO VISIBILITY.

NOT ALL STATIONS ARE QUALITY CONTROLLED BY THE NATIONAL
WEATHER SERVICE. USE DATA WITH CAUTION...ESPECIALLY
DEWPOINT OBSERVATIONS.

SCZ027-030-031-034>040-042>050-301000-
...SOUTHEAST SOUTH CAROLINA...

CITY           SKY/WX    TMP DP  RH WIND       PRES   REMARKS
N CHARLESTON   PTCLDY    75  68  78 SW7       29.98S
WATERFRONT PAR   N/A     77  73  87 VRB3      29.95F
MOUNT PLEASANT FAIR      77  70  78 SW6       29.98S
JOHNS ISLAND   FAIR      75  72  88 SW5       29.98S
PINOPOLIS      NOT AVBL
MONCKS CORNER  FAIR      73  66  78 SW3       29.98S
SUMMERVILLE    NOT AVBL
BEAUFORT MCAS  PTCLDY    74  67  78 SW7       29.99F
BEAUFORT ARPT  FAIR      75  70  83 SW7       29.99R
HILTON HEAD IS PTCLDY    75  72  88 SW7       30.00S
WALTERBORO     SUNNY     70  64  83 SW5       29.99S
ALLENDALE      FAIR      70  66  88 CALM      29.98S

...SOUTHERN MIDLANDS AND PEE DEE...

CITY           SKY/WX    TMP DP  RH WIND       PRES   REMARKS
GEORGETOWN     NOT AVBL
KINGSTREE      NOT AVBL
ORANGEBURG     CLEAR     69  64  84 S5        29.97F
BARNWELL       FAIR      70  66  88 SW3       29.99S
AIKEN          FAIR     N/A N/A N/A SW5       30.02R
MANNING        FAIR      72  63  73 SW5       29.97S
COLUMBIA       CLEAR     71  61  70 SW5       29.96S
SUMTER         CLEAR     72  63  73 SW7       29.94F
FLORENCE       CLEAR     71  64  78 SW6       29.95F
MYRTLE BEACH   CLEAR     75  66  73 SW8       29.98F
N MYRTLE BEACH CLEAR     76  68  76 W8        29.96S

$$

GAZ063-065-086>088-099>101-113>116-118-119-134>141-150-301000-
...SOUTHEAST GEORGIA...

CITY           SKY/WX    TMP DP  RH WIND       PRES   REMARKS
SAVANNAH ARPT  CLEAR     71  66  84 W5        30.00S
HUNTER AAF     CLEAR     73  69  89 SW6       29.98S
FORT STEWART   CLEAR     71  67  85 SW6       29.99S
STATESBORO     CLEAR     72  68  88 CALM      30.00S
SYLVANIA       SUNNY     73  69  88 CALM      30.01S
CLAXTON        FAIR      68  68 100 CALM      30.01R

...CSRA...CENTRAL AND FAR SOUTHEAST GEORGIA...

CITY           SKY/WX    TMP DP  RH WIND       PRES   REMARKS
THOMSON        CLEAR     72  66  81 S3        30.03S
AUGUSTA-BUSH   CLEAR     72  64  76 SW7       29.97F
AUGUSTA-DANIEL CLEAR     73  63  70 CALM      29.99S
SWAINSBORO     FAIR      73  70  88 CALM      30.02S
VIDALIA        CLEAR     70  68  94 W3        30.02S
EASTMAN        FAIR      73  73 100 CALM      30.05S
HAZLEHURST     FAIR      75  73  94 SW3       30.01S
ALMA           CLEAR     70  68  93 CALM      30.02S
WAYCROSS       CLEAR     73  72  98 W3        30.02S
JESUP          FAIR      70  68  94 CALM      30.01F
BAXLEY         FAIR      73  70  88 CALM      30.02S
BRUNSWICK      CLEAR     70  70 100 CALM      30.02S
SAINT SIMONS   PTCLDY    74  70  87 W5        30.01S

$$

SCZ027-028-034-036>038-045-046-048>050-GAZ119-141-301000-
...LAKE AND SUPPLEMENTAL COASTAL OBSERVATIONS...

STATION/POSITION TIME  TEMP    WIND        PRES    WAVE   SWELL
                       AIR SEA DIR/SP/G            HT/PER HT/PER/DIR
                 (UTC) (F)     (DEG/KT/KT) (MB)    (FT/S) (FT/S/D)
UPR LAKE MARION  NOT AVBL
WINYAH BAY       0845   76     250/  6     1014.0S
LAKE MURRAY      0800   79     230/  7/  9 1013.9S
ACE BASIN NERRS  NOT AVBL
FORT PULASKI     0900   76 84  250/  5/  7 1016.2S
SAPELO ISLAND    0900   76     260/  6     1016.0S

$$

ANZ835-935-AMZ111-154-330-350-352-354-370-450-454-472-301000-
...C-MAN AND BUOY OBSERVATIONS...

STATION/POSITION TIME  TEMP    WIND        PRES    WAVE   SWELL
                       AIR SEA DIR/SP/G            HT/PER HT/PER/DIR
                 (UTC) (F)     (DEG/KT/KT) (MB)    (FT/S) (FT/S/D)
BUOY 41004       0850   81 83  250/ 14/ 17 1014.6S   4/ 8   3/ 8
BUOY 41008       0850   80 79  260/ 12/ 16 1015.9F   2/ 8   2/110/ 8
FOLLY BEACH CMAN 0900   77     240/  6/  8 1015.3S
CAPERS NEARSHORE 0808   82     250/ 16/ 21 1015.2F
FRIPP NEARSHORE  0800   81     250/ 16/ 17 1015.3F


STATION/POSITION TIME  TEMP    WIND        PRES    WAVE   SWELL
                       AIR SEA DIR/SP/G            HT/PER HT/PER/DIR
                 (UTC) (F)     (DEG/KT/KT) (MB)    (FT/S) (FT/S/D)
5E ST. MARYS GA  0821      78                N/A     2/ 8
FRYING PAN BUOY  0850   81 80  240/ 14/ 17 1015.2R   4/ 5   2/110/ 8
BUOY 41025       0850   79 80  240/ 10/ 12 1014.6R   4/ 7   3/140/ 7
CAPE LOOKOUT NC  0900   79     240/  8/ 11 1014.3R
BUOY 41002       0850   78 80  230/ 23/ 29 1016.3F   6/ 6   2/150/ 9
BUOY 41010       0820   82 84  250/ 16/ 17 1017.8R
ST AUGUSTINE FL  0900   74 74  240/  4/  5 1018.3R


$$



USA.gov is the U.S. government's official web portal to all federal, state and local government web resources and services.